[[{"header":{"parameterUnit":"m.s-1","parameterCategory":1,"la1":30.2992,"la2":30.254,"lo1":-89.0895,"lo2":-89.0443,"dy":0.0025,"dx":0.0025,"nx":19,"ny":19,"refTime":"2026-05-17T21:00:00:Z","depth":0,"parameterNumber":2,"parameterNumberName":"U-component_of_WINDS"},"data":[0,0,0,-4.1844,-4.1847,-4.199,-4.199,-4.2178,-4.218,0,0,0,0,0,0,0,0,0,0,0,-4.1806,-4.1807,-4.1844,-4.1847,-4.199,-4.199,-4.2178,-4.218,0,0,0,0,0,0,0,0,0,0,0,-4.1805,-4.1807,-4.1808,-4.1848,-4.1989,-4.199,-4.2177,-4.2068,0,0,0,0,0,0,0,0,0,0,-4.1929,-4.1897,-4.1806,-4.1808,-4.1849,-4.1989,-4.199,-4.2063,-4.2075,-4.2116,0,-4.2154,0,-4.217,-4.2193,-4.2194,0,0,0,-4.1844,-4.1887,-4.1922,-4.1809,-4.185,-4.1989,-4.1925,-4.2069,-4.2083,-4.2133,-4.2157,-4.2164,-4.2173,-4.2194,-4.2195,-4.2444,-4.2445,0,0,-4.1837,-4.1833,-4.1912,-4.1931,-4.191,-4.192,-4.1929,-4.2078,-4.2104,-4.2158,-4.2168,-4.2176,-4.2195,-4.2197,-4.2443,-4.2444,0,0,0,-4.1816,-4.1828,-4.1859,-4.1923,-4.1949,-4.1924,-4.1935,-4.2097,-4.2108,-4.217,-4.2179,-4.2197,-4.2199,-4.2441,-4.2443,-4.2502,0,0,0,-4.1811,-4.1816,-4.1856,-4.1855,-4.1946,-4.2025,-4.1951,-4.2098,-4.2114,-4.2178,-4.2197,-4.2201,-4.244,-4.2442,-4.2498,-4.253,0,0,0,-4.1795,-4.1814,-4.1836,-4.1855,-4.1916,-4.2022,-4.2041,-4.2101,-4.212,-4.2194,-4.2201,-4.2439,-4.2442,-4.2493,-4.2523,-4.2593,0,0,0,-4.1777,-4.1887,-4.1837,-4.1964,-4.1915,-4.2059,-4.204,-4.2148,-4.2219,-4.2198,-4.244,-4.2443,-4.2492,-4.2519,-4.2588,-4.2649,-4.2675,0,0,-4.1914,-4.1904,-4.1979,-4.1938,-4.2089,-4.2037,-4.2198,-4.2266,-4.2277,-4.2388,-4.2394,-4.2499,-4.2523,-4.2592,-4.2824,-4.2844,0,0,0,-4.2021,-4.2074,-4.2116,-4.2182,-4.2237,-4.2286,-4.233,-4.2356,-4.245,-4.2333,-4.2545,-4.2559,-4.2599,-4.2628,-4.2646,-4.268,-4.2457,-4.2457,-4.2456,-4.2209,-4.2217,-4.234,-4.2365,-4.243,-4.2474,-4.2527,-4.2569,-4.2558,-4.2608,-4.264,-4.2779,-4.2813,-4.2826,-4.2862,-4.2675,-4.2675,-4.2675,-4.2675,-4.2409,-4.2485,-4.2468,-4.2581,-4.2588,-4.2684,-4.2731,-4.272,-4.281,-4.2756,-4.2792,-4.2731,-4.2848,-4.288,-4.268,-4.2679,-4.2679,-4.2678,-4.2678,-4.2531,-4.2568,-4.2598,-4.2694,-4.2768,-4.279,-4.2876,-4.2881,-4.2885,-4.2921,-4.2954,-4.2953,-4.2951,-4.2937,-4.2938,-4.2938,-4.2939,-4.2939,-4.2939,-4.2645,-4.2676,-4.2748,-4.2815,-4.2858,-4.2915,-4.2961,-4.3004,-4.3052,-4.3048,-4.3048,-4.3031,-4.286,-4.2815,-4.2947,-4.2945,-4.2944,-4.2944,-4.2943,-4.284,-4.2797,-4.2908,-4.2951,-4.303,-4.3102,-4.3107,-4.3193,-4.3229,-4.3271,-4.3247,-4.3121,-4.311,-4.3096,-4.3059,-4.3246,-4.3246,-4.3246,-4.3247,-4.2941,-4.2937,-4.305,-4.3119,-4.3186,-4.3202,-4.3326,-4.3364,-4.3395,-4.3417,-4.3392,-4.3344,-4.333,-4.3327,-4.3309,-4.3274,-4.3512,-4.3512,-4.3512,-4.306,-4.3063,-4.3168,-4.3197,-4.326,-4.3313,-4.3429,-4.3508,-4.3535,-4.3523,-4.3435,-4.3423,-4.3346,-4.3321,-4.3304,-4.3275,-4.3211,0,0]},{"header":{"parameterUnit":"m.s-1","parameterCategory":1,"la1":30.2992,"la2":30.254,"lo1":-89.0895,"lo2":-89.0443,"dy":0.0025,"dx":0.0025,"nx":19,"ny":19,"refTime":"2026-05-17T21:00:00:Z","depth":0,"parameterNumber":3,"parameterNumberName":"V-component_of_WINDS"},"data":[0,0,0,2.8939,2.894,2.8949,2.8949,2.8973,2.8974,0,0,0,0,0,0,0,0,0,0,0,2.8944,2.8944,2.8939,2.894,2.8949,2.8949,2.8973,2.8974,0,0,0,0,0,0,0,0,0,0,0,2.8944,2.8944,2.8945,2.894,2.8949,2.8949,2.8973,2.8962,0,0,0,0,0,0,0,0,0,0,2.8951,2.8962,2.8944,2.8945,2.894,2.8949,2.8949,2.8961,2.8963,2.8975,0,2.8987,0,2.8981,2.8976,2.8976,0,0,0,2.8934,2.8961,2.8957,2.8945,2.894,2.8949,2.8943,2.8962,2.8963,2.8977,2.8987,2.8988,2.8981,2.8976,2.8977,2.9066,2.9067,0,0,2.8934,2.8949,2.8956,2.8958,2.8958,2.8943,2.8944,2.8963,2.8975,2.8987,2.8988,2.8982,2.8977,2.8977,2.9066,2.9067,0,0,0,2.8936,2.8949,2.8945,2.8958,2.8958,2.8944,2.8944,2.8974,2.8972,2.8988,2.8982,2.8977,2.8977,2.9065,2.9066,2.9116,0,0,0,2.8935,2.8951,2.8945,2.8954,2.8958,2.8966,2.8956,2.897,2.8972,2.8982,2.8977,2.8978,2.9064,2.9065,2.9113,2.9137,0,0,0,2.8941,2.8951,2.8955,2.8955,2.896,2.8966,2.8964,2.897,2.8968,2.8976,2.8978,2.9064,2.9065,2.911,2.9132,2.9166,0,0,0,2.8951,2.8998,2.8956,2.9007,2.896,2.8997,2.8964,2.899,2.9003,2.8977,2.9064,2.9066,2.9109,2.913,2.9163,2.9198,2.9213,0,0,2.9019,2.9007,2.9036,2.8998,2.9047,2.8994,2.905,2.9046,2.9032,2.9056,2.9058,2.9114,2.9132,2.9166,2.9295,2.9308,0,0,0,2.9063,2.9084,2.9093,2.9107,2.9106,2.9107,2.9093,2.9093,2.9112,2.9048,2.9135,2.9145,2.9164,2.918,2.919,2.9206,2.9074,2.9074,2.9073,2.9181,2.9162,2.9209,2.9192,2.9205,2.9192,2.9201,2.9198,2.9173,2.9194,2.9201,2.9282,2.9301,2.9309,2.9326,2.9217,2.9217,2.9217,2.9218,2.928,2.9307,2.9276,2.931,2.9289,2.9317,2.9307,2.9289,2.9312,2.9274,2.929,2.9251,2.9323,2.9337,2.9221,2.922,2.922,2.922,2.9219,2.9356,2.9366,2.9365,2.9385,2.9402,2.9382,2.9407,2.9387,2.9369,2.9384,2.939,2.9389,2.9386,2.9389,2.9389,2.9389,2.9389,2.939,2.939,2.9436,2.9433,2.9457,2.9462,2.9469,2.9476,2.9465,2.9472,2.9474,2.9457,2.9457,2.9432,2.9334,2.931,2.9394,2.9393,2.9393,2.9392,2.9392,2.9544,2.9517,2.9553,2.9561,2.9566,2.9586,2.9561,2.9577,2.9579,2.9592,2.9564,2.9495,2.948,2.9471,2.9452,2.9567,2.9567,2.9567,2.9567,2.9608,2.96,2.9634,2.9648,2.9659,2.9641,2.9684,2.9676,2.9664,2.9665,2.9645,2.9617,2.9609,2.9599,2.9588,2.9569,2.9712,2.9712,2.9712,2.9674,2.9666,2.9707,2.9695,2.9699,2.9702,2.9742,2.976,2.974,2.9718,2.9665,2.9659,2.9614,2.96,2.9576,2.9558,2.9523,0,0]}]]